Weather History for Monett, MO

Change the Weather History Date:

Saturday, March 9, 2013

  Actual Average (KJLN) Record (KJLN)
Temperature  
Mean Temperature 57 °F 47 °F  
Max Temperature 68 °F 58 °F 78 °F (1986)
Min Temperature 46 °F 36 °F 12 °F (1996)
Degree Days  
Heating Degree Days 8 18  
Month to date heating degree days 177  
Since 1 July heating degree days 3431  
Cooling Degree Days 0 0  
Month to date cooling degree days 0  
Year to date cooling degree days 1  
Growing Degree Days 7 (Base 50)    
Moisture  
Dew Point 46 °F    
Average Humidity 71    
Maximum Humidity 100    
Minimum Humidity 42    
Precipitation  
Precipitation 0.84 in 0.10 in 1.51 in (1974)
Month to date precipitation 0.93  
Year to date precipitation 5.28  
Sea Level Pressure  
Sea Level Pressure 29.84 in    
Wind  
Wind Speed 13 mph (SSE)    
Max Wind Speed 23 mph    
Max Gust Speed 31 mph    
Visibility 9 miles    
Events Rain , Thunderstorm    
T = Trace of Precipitation, MM = Missing Value Source: NWS Daily Summary

Daily Weather History Graph

Daily Weather History Graph

Search for Another Location

Airport:

Trip Planner

Search our weather history database for the weather conditions in past years. The results will help you decide how hot, cold, wet, or windy it might be!

Date:

Astronomy

Mar. 09, 2013 Rise Set
Actual Time 6:35 AM CST 6:18 PM CST
Civil Twilight 6:09 AM CST 6:44 PM CST
Nautical Twilight 5:39 AM CST 7:14 PM CST
Astronomical Twilight 5:09 AM CST 7:44 PM CST
Moon 4:57 AM CST (3/9) 4:22 PM CST (3/9)
Length of Visible Light 12h 34m
Length of Day
11h 42m
Waning Crescent, 5% of the Moon is Illuminated
Mar 9
Waning Crescent
Mar 11
New
Mar 19
First Quarter
Mar 27
Full
Apr 2
Last Quarter

Hourly Weather History & Observations

Time (CST) Temp. Windchill Dew Point Humidity Pressure Visibility Wind Dir Wind Speed Gust Speed Precip Events Conditions
12:15 AM 46.4 °F 41.1 °F 41.0 °F 81% 30.03 in 7.0 mi SE 11.5 mph 17.3 mph 0.01 in Rain Light Rain
12:35 AM 46.4 °F 40.7 °F 41.0 °F 81% 30.03 in 10.0 mi SE 12.7 mph - 0.01 in   Light Drizzle
12:55 AM 46.4 °F 41.9 °F 41.0 °F 81% 30.04 in 10.0 mi SE 9.2 mph - 0.01 in   Overcast
1:15 AM 46.4 °F 40.4 °F 41.0 °F 81% 30.03 in 10.0 mi SE 13.8 mph - N/A   Overcast
1:35 AM 46.4 °F 40.4 °F 41.0 °F 81% 30.02 in 10.0 mi SE 13.8 mph - N/A   Overcast
1:55 AM 46.4 °F 41.5 °F 39.2 °F 76% 30.01 in 10.0 mi SE 10.4 mph - N/A   Overcast
2:15 AM 46.4 °F 41.1 °F 41.0 °F 81% 30.00 in 10.0 mi SE 11.5 mph - N/A   Overcast
2:35 AM 46.4 °F 41.1 °F 39.2 °F 76% 29.99 in 10.0 mi SE 11.5 mph - N/A   Overcast
2:55 AM 46.4 °F 41.1 °F 39.2 °F 76% 29.98 in 10.0 mi SE 11.5 mph - N/A   Overcast
3:15 AM 46.4 °F 41.5 °F 39.2 °F 76% 29.96 in 10.0 mi SE 10.4 mph - N/A   Overcast
3:35 AM 46.4 °F 41.1 °F 37.4 °F 71% 29.96 in 10.0 mi SE 11.5 mph - N/A   Overcast
3:55 AM 46.4 °F 41.5 °F 37.4 °F 71% 29.96 in 10.0 mi SE 10.4 mph - N/A   Overcast
4:15 AM 48.2 °F - 37.4 °F 66% 29.96 in 10.0 mi SE 8.1 mph - N/A   Overcast
4:35 AM 46.4 °F 42.4 °F 39.2 °F 76% 29.96 in 10.0 mi SE 8.1 mph - N/A   Overcast
4:55 AM 46.4 °F 42.4 °F 39.2 °F 76% 29.96 in 10.0 mi SE 8.1 mph - N/A   Overcast
5:15 AM 46.4 °F 42.4 °F 39.2 °F 76% 29.96 in 10.0 mi SE 8.1 mph - N/A   Overcast
5:35 AM 46.4 °F 42.4 °F 39.2 °F 76% 29.95 in 10.0 mi SE 8.1 mph - N/A   Overcast
5:55 AM 46.4 °F 42.4 °F 39.2 °F 76% 29.94 in 10.0 mi SE 8.1 mph - N/A   Overcast
6:15 AM 48.2 °F - 37.4 °F 66% 29.93 in 10.0 mi SE 11.5 mph - N/A   Overcast
6:35 AM 48.2 °F - 37.4 °F 66% 29.93 in 10.0 mi SSE 9.2 mph - N/A   Mostly Cloudy
6:55 AM 48.2 °F - 37.4 °F 66% 29.92 in 10.0 mi SE 10.4 mph - N/A   Scattered Clouds
7:15 AM 50.0 °F - 37.4 °F 62% 29.93 in 10.0 mi SE 9.2 mph - N/A   Scattered Clouds
7:35 AM 50.0 °F - 39.2 °F 66% 29.93 in 10.0 mi SSE 9.2 mph - N/A   Scattered Clouds
7:55 AM 51.8 °F - 41.0 °F 67% 29.93 in 10.0 mi SSE 8.1 mph - N/A   Scattered Clouds
8:15 AM 53.6 °F - 41.0 °F 62% 29.93 in 10.0 mi SSE 9.2 mph - N/A   Clear
8:35 AM 55.4 °F - 41.0 °F 58% 29.93 in 10.0 mi SSE 12.7 mph 18.4 mph N/A   Clear
8:55 AM 57.2 °F - 41.0 °F 55% 29.92 in 10.0 mi SSE 11.5 mph 19.6 mph N/A   Scattered Clouds
9:15 AM 59.0 °F - 39.2 °F 48% 29.91 in 10.0 mi South 12.7 mph 17.3 mph N/A   Scattered Clouds
9:35 AM 59.0 °F - 37.4 °F 45% 29.91 in 10.0 mi SSE 15.0 mph 21.9 mph N/A   Clear
9:55 AM 60.8 °F - 39.2 °F 45% 29.89 in 10.0 mi SSE 19.6 mph 23.0 mph N/A   Scattered Clouds
10:15 AM 60.8 °F - 39.2 °F 45% 29.89 in 10.0 mi South 18.4 mph 25.3 mph N/A   Scattered Clouds
10:35 AM 62.6 °F - 41.0 °F 45% 29.88 in 10.0 mi South 19.6 mph 24.2 mph N/A   Scattered Clouds
10:55 AM 62.6 °F - 41.0 °F 45% 29.87 in 10.0 mi South 19.6 mph 26.5 mph N/A   Clear
11:15 AM 64.4 °F - 41.0 °F 42% 29.86 in 10.0 mi South 19.6 mph 23.0 mph N/A   Mostly Cloudy
11:35 AM 64.4 °F - 42.8 °F 45% 29.85 in 10.0 mi SSE 17.3 mph 25.3 mph N/A   Overcast
11:55 AM 64.4 °F - 44.6 °F 49% 29.83 in 10.0 mi SSE 16.1 mph 25.3 mph N/A   Overcast
12:15 PM 66.2 °F - 44.6 °F 46% 29.81 in 10.0 mi SSE 23.0 mph 31.1 mph N/A   Mostly Cloudy
12:35 PM 68.0 °F - 46.4 °F 46% 29.81 in 10.0 mi SSE 20.7 mph 25.3 mph N/A   Overcast
12:55 PM 66.2 °F - 46.4 °F 49% 29.80 in 10.0 mi South 18.4 mph 25.3 mph N/A   Overcast
1:15 PM 64.4 °F - 46.4 °F 52% 29.78 in 10.0 mi South 20.7 mph 27.6 mph N/A   Overcast
1:35 PM 64.4 °F - 46.4 °F 52% 29.77 in 10.0 mi South 17.3 mph 24.2 mph N/A   Overcast
1:55 PM 66.2 °F - 46.4 °F 49% 29.76 in 10.0 mi SSE 21.9 mph 26.5 mph N/A   Overcast
2:15 PM 64.4 °F - 48.2 °F 56% 29.76 in 10.0 mi South 17.3 mph 20.7 mph N/A   Overcast
2:35 PM 64.4 °F - 48.2 °F 56% 29.76 in 10.0 mi South 17.3 mph 24.2 mph N/A   Overcast
2:55 PM 64.4 °F - 48.2 °F 56% 29.76 in 10.0 mi South 18.4 mph 26.5 mph N/A   Overcast
3:15 PM 64.4 °F - 50.0 °F 59% 29.76 in 10.0 mi South 16.1 mph 24.2 mph N/A   Overcast
3:35 PM 64.4 °F - 50.0 °F 59% 29.76 in 10.0 mi South 16.1 mph 23.0 mph N/A   Overcast
3:55 PM 62.6 °F - 50.0 °F 63% 29.75 in 10.0 mi South 16.1 mph 19.6 mph N/A   Overcast
4:15 PM 62.6 °F - 51.8 °F 68% 29.74 in 10.0 mi South 16.1 mph 23.0 mph N/A   Overcast
4:35 PM 62.6 °F - 51.8 °F 68% 29.74 in 10.0 mi SSE 17.3 mph 23.0 mph N/A   Overcast
4:55 PM 60.8 °F - 51.8 °F 72% 29.74 in 10.0 mi South 20.7 mph 25.3 mph N/A   Overcast
5:15 PM 60.8 °F - 51.8 °F 72% 29.73 in 10.0 mi SSE 15.0 mph 24.2 mph N/A   Overcast
5:35 PM 60.8 °F - 51.8 °F 72% 29.73 in 10.0 mi SSE 17.3 mph 21.9 mph N/A   Overcast
5:55 PM 59.0 °F - 53.6 °F 82% 29.73 in 7.0 mi SSE 15.0 mph 23.0 mph 0.01 in Rain Rain
6:15 PM 57.2 °F - 53.6 °F 88% 29.73 in 10.0 mi SSE 12.7 mph 18.4 mph N/A Rain Rain
6:35 PM 57.2 °F - 53.6 °F 88% 29.72 in 10.0 mi SSE 12.7 mph - N/A   Overcast
6:55 PM 57.2 °F - 53.6 °F 88% 29.72 in 10.0 mi SE 12.7 mph - N/A   Overcast
7:15 PM 57.2 °F - 53.6 °F 88% 29.73 in 5.0 mi SSE 11.5 mph - 0.03 in Rain , Thunderstorm Rain
7:35 PM 55.4 °F - 53.6 °F 94% 29.72 in 7.0 mi SE 13.8 mph - 0.07 in Rain , Thunderstorm Light Thunderstorms and Rain
7:55 PM 55.4 °F - 53.6 °F 94% 29.72 in 7.0 mi SSE 15.0 mph 20.7 mph 0.09 in Rain , Thunderstorm Light Thunderstorms and Rain
8:15 PM 55.4 °F - 55.4 °F 100% 29.73 in 7.0 mi SSE 12.7 mph 18.4 mph 0.02 in Rain , Thunderstorm Light Thunderstorms and Rain
8:35 PM 57.2 °F - 55.4 °F 94% 29.69 in 10.0 mi SE 13.8 mph 19.6 mph 0.03 in Rain , Thunderstorm Light Thunderstorms and Rain
8:55 PM 59.0 °F - 55.4 °F 88% 29.69 in 10.0 mi SE 17.3 mph 26.5 mph 0.03 in Thunderstorm Drizzle
9:15 PM 57.2 °F - 55.4 °F 94% 29.70 in 10.0 mi SSE 19.6 mph 25.3 mph 0.02 in Rain , Thunderstorm Light Thunderstorms and Rain
9:35 PM 57.2 °F - 55.4 °F 94% 29.71 in 4.0 mi SSE 16.1 mph 27.6 mph 0.10 in Rain , Thunderstorm Heavy Thunderstorms and Rain
9:55 PM 57.2 °F - 55.4 °F 94% 29.71 in 5.0 mi SSE 12.7 mph - 0.17 in Rain Heavy Rain
10:15 PM 55.4 °F - 55.4 °F 100% 29.72 in 4.0 mi SSE 12.7 mph - 0.09 in Rain , Thunderstorm Heavy Thunderstorms and Rain
10:35 PM 55.4 °F - 55.4 °F 100% 29.70 in 5.0 mi SSE 12.7 mph 19.6 mph 0.18 in Rain Rain
10:55 PM 55.4 °F - 55.4 °F 100% 29.71 in 5.0 mi SSE 15.0 mph 20.7 mph 0.23 in Rain , Thunderstorm Heavy Thunderstorms and Rain
11:15 PM 57.2 °F - 55.4 °F 94% 29.69 in 5.0 mi South 15.0 mph 23.0 mph 0.06 in Rain Rain
11:35 PM 57.2 °F - 55.4 °F 94% 29.74 in 3.0 mi WSW 16.1 mph 26.5 mph 0.21 in Rain Heavy Rain
11:55 PM 55.4 °F - 53.6 °F 94% 29.72 in 5.0 mi SSW 3.5 mph - 0.30 in Rain Heavy Rain